Theta_e
339 339 341 342 344 344 343 343 343 343 344 343 343 342 343 342 342 342 342 342 339 340 338 338 338 339 338 338 338 339 338 337 337 333 332 333 329 330 334 334 334 336 338 336 334 327 321 319 324 335 335 334 335 336 337 336 336 339 338 336 337 338 340
341 342 342 343 342 343 342 342 342 341 342 343 341 341 341 340 340 340 341 340 340 340 338 338 338 339 339 338 338 337 336 336 336 336 333 332 332 330 331 331 332 330 332 334 335 333 322 320 323 323 326 336 335 336 333 337 340 339 337 336 337 337 340
340 342 342 341 341 342 341 341 341 340 340 340 342 341 341 339 339 339 339 338 339 338 338 337 337 337 337 337 337 337 337 335 335 335 333 333 333 333 332 332 330 329 329 331 331 330 327 324 320 322 326 325 326 331 334 338 337 338 337 336 335 339 336
341 340 339 339 339 339 338 339 338 338 339 339 339 339 339 338 339 338 338 337 338 338 336 336 336 336 335 335 336 336 336 335 334 336 335 335 333 332 332 331 330 329 326 325 325 327 328 324 324 323 324 324 325 327 332 336 336 335 334 336 334 335 337
341 339 338 338 338 337 338 337 337 336 336 336 337 336 336 337 336 335 336 336 335 336 335 336 335 335 335 335 335 335 335 336 336 335 334 333 333 332 332 331 331 332 330 329 330 330 329 327 323 322 324 324 323 324 329 337 337 333 335 334 335 335 338
341 340 339 338 338 337 337 336 335 333 333 333 334 334 335 334 334 333 334 334 334 335 335 335 335 335 335 334 334 335 334 334 334 335 332 333 333 331 330 332 333 333 331 332 332 330 331 332 328 321 323 327 324 322 326 332 333 333 334 334 335 337 336
340 340 339 337 337 336 335 334 334 333 332 332 332 333 333 333 333 333 334 334 334 335 334 334 334 334 334 332 333 333 334 334 335 335 334 334 334 334 333 332 334 333 333 335 333 331 330 329 324 323 324 324 325 322 326 327 330 327 331 337 337 337 336
338 338 337 337 336 335 335 334 333 332 331 332 331 332 332 332 332 333 333 332 332 332 333 333 334 334 334 334 334 334 334 335 335 334 333 334 332 332 333 333 333 333 334 334 334 333 331 331 329 327 323 317 321 324 324 325 326 323 328 331 337 338 338
337 337 336 336 336 335 334 333 332 331 331 330 332 332 332 331 331 331 331 331 332 333 333 333 333 333 333 333 333 334 334 335 334 334 334 333 333 334 333 334 334 333 334 334 334 333 333 333 333 329 325 323 319 316 321 321 324 323 326 327 332 335 336
337 336 335 334 334 334 333 332 331 330 330 330 331 331 330 330 330 330 329 330 331 331 330 331 331 332 333 334 333 333 333 334 334 333 334 333 333 334 334 335 334 333 334 335 334 332 332 335 333 330 328 326 325 319 316 317 320 321 326 329 328 331 334
335 334 334 333 333 332 331 330 330 328 328 329 329 329 329 327 328 328 328 328 329 329 329 330 330 330 330 330 332 333 334 334 334 334 334 333 335 335 335 335 333 333 335 335 334 333 332 335 333 329 328 329 329 324 323 319 318 324 328 330 331 330 334
333 333 332 332 331 330 329 328 328 328 329 328 327 327 326 326 326 326 327 327 327 327 327 328 328 329 329 329 330 330 332 333 333 332 333 333 334 334 335 333 335 335 334 334 331 331 334 333 334 331 327 328 327 326 325 321 317 325 328 326 328 332 333
331 330 330 330 329 327 327 327 327 326 326 326 326 326 325 324 325 325 325 325 326 326 325 326 327 327 328 328 329 329 330 331 332 331 332 332 333 333 333 331 330 331 330 331 331 330 330 332 331 332 329 329 329 332 329 323 320 321 328 328 328 333 335
329 329 328 328 328 327 326 326 326 326 326 325 324 324 323 323 323 324 324 324 324 324 324 324 325 326 326 326 327 328 329 330 330 331 332 331 332 332 331 329 329 331 333 331 331 331 331 333 332 330 329 329 327 329 326 322 320 320 325 329 330 332 334
328 327 326 325 324 324 324 324 325 324 323 323 323 322 322 322 322 322 322 322 323 323 324 324 324 324 323 325 326 327 328 328 329 329 330 329 329 330 330 329 329 328 330 330 331 329 329 331 330 329 329 328 327 327 328 325 323 321 320 326 327 332 334
326 325 324 323 322 322 322 322 322 322 322 322 321 321 321 321 321 321 322 322 322 322 323 323 324 323 324 324 324 324 325 326 326 326 325 326 325 326 325 324 323 323 326 327 328 330 332 331 330 328 328 327 329 330 329 327 325 324 321 322 327 327 329
324 322 321 321 321 321 321 321 321 321 321 321 320 321 321 320 321 321 321 322 321 321 321 321 322 322 323 323 323 322 323 324 324 323 323 322 322 322 320 318 317 318 320 322 324 325 327 328 330 330 326 329 327 327 327 328 329 326 324 320 325 326 328
322 321 320 319 319 320 320 320 320 320 320 320 319 319 320 320 320 319 319 319 319 319 319 319 318 319 321 322 322 321 321 321 322 322 321 321 321 319 316 313 313 313 314 315 317 318 320 323 326 329 327 327 327 328 327 327 328 327 325 324 325 328 330
320 319 319 319 320 320 320 320 319 319 319 319 319 319 320 319 319 318 318 318 318 317 317 316 315 316 318 320 320 320 320 320 320 320 320 319 319 318 315 313 312 312 310 310 311 312 315 318 323 323 321 323 326 327 327 327 326 328 327 326 322 323 326
318 318 318 319 319 319 319 320 319 318 319 319 318 318 319 318 318 318 317 317 316 315 314 313 313 314 316 318 320 319 318 318 318 318 318 318 318 318 316 314 312 311 308 307 307 307 309 313 316 317 316 316 322 324 325 325 324 324 325 325 325 326 324
318 317 318 318 318 319 319 318 318 318 318 317 318 318 318 318 318 317 316 315 314 313 312 311 310 310 312 316 319 318 317 316 316 317 317 317 317 316 316 315 313 311 308 307 306 305 306 307 310 310 310 311 314 319 322 324 324 325 323 322 323 324 324
317 317 317 318 318 319 318 318 318 318 317 317 317 318 318 317 316 315 315 314 313 311 310 309 307 304 307 311 318 317 316 315 315 315 315 316 316 316 316 315 314 312 310 308 304 303 303 304 305 304 305 307 309 313 316 320 321 322 322 321 322 325 324
317 317 318 317 318 318 318 318 318 318 317 318 317 318 317 317 316 315 314 313 312 311 309 308 301 297 298 305 316 316 316 315 315 315 315 315 315 315 315 315 315 313 307 305 303 300 299 300 302 303 303 304 304 306 309 312 314 315 318 319 316 319 319
316 316 317 317 318 317 317 318 318 317 317 317 317 317 316 315 315 315 313 312 312 311 309 303 294 294 294 295 307 317 315 315 314 314 315 315 314 315 315 315 314 314 313 312 305 299 299 298 298 298 299 300 302 302 303 306 309 311 313 314 311 310 311
316 316 317 316 317 317 317 317 317 317 317 317 317 317 315 315 315 315 314 313 312 311 309 296 292 293 294 293 296 311 317 315 314 314 314 314 314 315 315 315 314 314 313 312 313 312 306 300 299 299 298 298 298 297 297 301 304 307 307 307 306 304 305
315 315 315 316 317 317 317 317 317 317 316 317 317 315 315 315 315 315 315 313 311 310 308 295 292 293 294 293 293 304 317 316 314 314 314 314 314 314 314 314 313 313 313 313 311 311 314 314 304 302 302 302 302 300 296 296 297 305 307 305 303 302 301
314 314 315 316 317 316 316 316 317 317 317 317 316 315 315 315 314 314 314 314 312 310 306 295 292 292 293 292 292 298 317 313 312 311 311 311 312 312 313 313 312 312 313 312 309 305 312 313 312 312 310 309 308 306 301 300 299 299 303 305 303 300 301
313 313 314 316 316 315 316 316 316 317 317 316 315 314 314 314 314 314 314 315 313 309 305 292 292 292 292 293 291 301 316 314 312 311 310 309 308 309 310 312 312 312 312 311 306 299 304 312 312 312 311 310 310 309 308 307 306 307 306 306 305 304 303
313 313 314 315 315 314 315 315 315 316 316 315 315 315 314 314 313 313 314 314 312 310 306 292 291 292 292 293 294 315 315 314 312 311 309 308 306 306 306 308 310 310 311 308 300 293 296 307 314 312 310 310 310 310 308 302 298 299 304 306 306 306 305
313 313 313 313 313 314 314 314 315 316 315 314 313 313 313 312 313 312 312 312 312 309 307 296 291 292 292 292 300 316 314 313 312 310 309 308 306 304 303 304 306 307 307 305 296 293 294 301 314 311 310 310 309 309 310 311 300 296 296 296 296 297 297
312 312 313 313 313 314 314 314 315 315 314 313 313 313 313 312 312 311 310 309 310 308 306 298 291 292 292 292 297 315 313 312 311 309 308 308 307 305 303 299 301 302 303 302 293 293 293 307 311 311 310 309 308 307 308 310 312 310 300 299 298 298 298
313 312 312 313 313 313 313 313 314 314 314 314 313 313 312 311 311 311 310 309 306 307 306 300 292 291 292 293 299 315 312 311 309 309 308 306 307 306 304 301 297 295 298 296 291 293 293 301 311 309 309 309 307 307 307 309 309 308 309 309 308 308 307
313 313 313 313 313 313 314 314 314 313 313 313 311 311 311 310 309 308 308 307 306 306 306 302 296 291 292 293 293 308 312 309 307 306 306 305 305 305 304 303 299 292 291 291 292 291 293 293 307 309 308 307 306 305 309 308 309 311 309 308 308 308 307
312 313 313 313 313 313 313 313 313 313 312 312 311 310 309 308 307 306 306 305 304 303 302 303 299 290 292 292 292 298 310 308 307 306 305 304 304 303 302 301 301 294 291 292 292 292 292 293 295 307 305 305 306 304 304 309 309 304 308 309 308 307 307
313 313 313 313 313 312 313 313 312 312 311 311 310 309 308 307 305 304 304 304 304 303 300 298 302 294 291 292 292 292 304 307 306 307 305 304 303 302 301 300 300 296 291 292 292 292 293 293 295 304 303 292 292 293 308 308 308 308 307 307 306 305 306
312 312 312 312 312 311 312 312 312 311 311 310 308 307 307 306 305 303 303 302 303 302 302 299 294 298 292 291 291 292 292 298 295 307 305 303 303 302 302 301 301 296 291 291 292 292 293 294 298 300 292 292 294 296 302 307 306 306 304 305 305 304 304
312 312 311 312 311 310 310 311 310 310 309 308 306 305 305 305 304 303 302 301 302 301 301 300 296 294 296 291 292 291 292 291 293 303 304 302 302 301 301 301 299 291 292 292 292 293 293 294 299 293 293 294 296 300 307 306 304 305 304 302 302 302 303
Wind_Speed
7 7 6 5 4 4 4 4 3 3 2 1 1 3 4 3 3 4 4 5 5 6 5 6 6 7 7 7 7 8 9 8 9 9 10 9 9 9 6 8 9 10 10 11 11 8 11 13 10 6 7 9 9 7 9 11 11 8 6 6 8 9 7
7 6 6 6 5 4 4 3 2 2 1 1 2 2 4 4 4 5 5 6 6 6 6 6 6 7 8 9 9 8 9 8 8 9 10 10 9 10 10 9 8 9 8 9 9 6 8 12 12 11 10 6 7 7 7 10 9 8 8 8 8 10 8
6 5 5 6 4 4 4 3 2 1 0 1 1 2 3 3 4 4 5 6 6 6 6 7 8 8 8 9 9 10 9 10 9 9 10 10 10 10 10 9 9 9 9 8 8 7 8 12 13 12 9 8 7 6 9 7 9 8 6 7 9 7 4
7 6 6 5 4 4 3 2 1 1 1 2 2 2 2 3 4 5 6 6 6 6 7 7 8 8 8 8 8 10 10 10 10 10 10 11 10 11 11 9 9 10 10 11 9 8 8 8 10 13 12 11 11 7 7 8 5 7 8 9 9 11 9
6 5 5 5 5 3 2 2 2 2 1 2 1 1 2 4 5 5 6 7 6 6 6 6 7 8 8 8 8 8 9 9 10 10 9 10 11 10 11 9 9 9 9 10 9 8 8 8 8 12 12 8 6 10 6 7 8 9 8 9 10 11 10
5 6 6 5 3 3 2 1 0 1 2 2 2 3 4 5 4 5 5 6 6 6 6 7 8 8 8 8 8 9 9 10 9 10 9 10 11 11 10 10 9 9 10 8 5 7 8 7 5 9 11 8 9 9 10 4 3 5 8 11 10 10 11
7 6 5 4 2 3 3 1 2 2 2 2 2 3 3 5 5 5 5 6 6 7 7 7 8 8 8 8 9 9 10 9 10 10 10 12 11 12 10 10 9 9 9 7 6 6 10 9 9 10 10 9 10 11 7 7 5 3 8 7 8 10 11
6 5 5 4 3 2 2 1 1 1 1 4 3 3 4 4 5 5 5 6 6 6 7 7 7 8 8 7 8 9 9 9 10 10 10 11 11 12 12 10 10 10 9 9 7 6 9 8 8 6 8 10 9 8 10 9 10 14 8 8 10 9 10
5 5 4 4 3 3 2 1 2 2 3 2 3 3 4 4 5 6 7 6 6 7 7 8 8 7 8 8 9 9 10 8 9 11 11 11 11 12 11 10 9 9 9 8 7 6 9 8 6 7 9 9 10 10 9 10 8 9 10 8 10 10 10
5 5 5 4 3 3 2 2 2 2 2 2 2 3 4 5 5 5 6 6 6 7 7 7 8 8 9 9 9 9 10 9 10 11 10 10 10 10 9 10 8 8 9 7 5 6 9 5 5 4 7 9 7 9 9 9 8 9 7 8 6 7 11
5 5 4 5 3 3 3 2 2 2 3 2 2 3 4 5 5 5 5 6 6 6 7 7 7 7 7 8 9 9 9 10 11 10 9 9 9 9 8 8 7 7 7 7 6 7 8 6 5 3 6 9 8 9 10 11 10 7 5 5 5 5 7
4 4 4 3 3 3 2 3 2 3 2 2 2 3 4 4 4 5 5 5 6 6 7 7 7 7 7 7 8 9 10 11 10 10 9 8 8 8 8 9 8 6 6 6 8 9 8 7 5 5 6 7 7 9 9 8 10 4 2 4 4 7 6
4 4 3 3 3 3 4 3 3 3 3 2 3 3 3 4 5 5 5 5 6 6 7 7 7 7 7 7 8 8 9 11 11 11 11 10 8 9 10 10 10 10 9 7 7 7 7 5 6 5 6 7 9 5 5 9 11 10 4 6 7 6 6
3 3 3 2 3 4 4 3 3 3 3 4 3 4 4 4 5 5 6 6 7 6 7 7 7 7 7 8 8 8 9 10 12 11 11 12 11 11 11 12 10 9 7 7 5 5 6 6 6 5 5 6 7 5 7 8 10 9 7 6 5 6 6
2 3 4 3 4 4 4 4 4 4 4 4 3 3 4 4 5 5 5 6 6 6 7 7 7 6 7 8 8 8 8 10 11 12 12 12 13 12 12 13 14 14 13 11 9 8 8 7 6 6 6 6 8 8 7 7 8 9 10 6 6 5 5
3 3 4 4 5 5 5 5 5 5 4 4 4 4 5 5 5 5 5 6 6 6 7 7 7 7 7 8 9 9 9 10 10 10 11 12 13 12 13 13 14 13 11 12 11 10 9 8 6 6 6 7 7 6 6 8 10 7 6 7 5 7 5
3 4 4 4 5 5 5 5 5 5 6 5 5 5 5 6 6 6 6 7 7 8 8 8 8 8 8 9 9 9 9 9 9 9 10 11 11 11 12 12 13 13 13 12 12 11 10 10 7 6 8 5 5 7 7 7 8 6 6 8 6 6 5
5 5 5 5 6 6 6 6 5 6 6 6 6 6 6 6 6 7 7 7 8 8 9 9 9 9 8 9 9 9 9 9 9 9 10 10 10 10 12 11 12 13 13 12 12 11 11 13 10 7 7 6 6 6 5 6 7 5 6 6 5 3 3
7 7 6 6 6 7 6 6 6 6 7 7 6 7 7 6 6 7 8 8 8 9 9 10 10 10 9 9 8 9 9 9 9 9 10 10 10 9 10 12 12 13 13 12 11 12 13 13 11 10 11 10 8 7 7 6 6 6 6 5 6 4 3
7 7 6 6 6 6 6 6 7 7 7 7 7 7 7 7 7 8 9 9 10 10 10 10 10 10 9 9 9 9 9 9 9 8 9 10 9 9 10 10 12 12 13 12 11 12 13 12 11 12 11 11 11 9 7 6 5 6 7 5 4 4 4
8 8 7 7 7 7 7 7 7 7 7 7 7 7 7 7 7 8 9 9 9 9 10 11 11 11 10 9 8 9 9 10 9 9 9 9 9 9 9 10 9 10 10 12 13 14 14 11 10 11 12 11 11 10 9 7 6 5 5 5 5 4 3
8 8 8 7 7 7 8 7 7 7 7 7 6 7 7 8 8 9 10 9 9 9 10 9 7 8 8 10 8 9 9 10 10 9 9 9 10 10 9 9 9 7 9 11 13 11 14 15 11 11 12 12 11 10 9 8 8 7 6 6 5 2 2
9 8 8 8 8 8 7 7 7 7 8 7 7 7 8 8 9 9 9 10 9 9 8 7 10 15 12 8 8 8 8 9 10 9 9 9 10 10 10 9 10 9 6 7 10 10 11 13 15 14 13 14 13 12 10 9 9 8 7 7 8 7 5
9 9 8 8 8 8 8 7 8 8 8 8 8 8 8 9 9 9 10 9 10 9 8 8 17 16 16 16 9 8 9 9 9 10 10 10 10 10 10 10 9 12 10 4 6 11 10 11 10 12 16 17 16 13 12 11 9 10 9 8 7 8 8
9 9 8 8 8 8 8 8 8 8 8 9 8 9 9 9 9 9 9 9 10 9 8 13 17 17 17 17 14 7 9 8 9 9 10 11 10 10 11 10 9 9 9 11 9 5 7 11 13 12 13 16 18 18 15 13 11 11 11 10 10 10 8
9 9 8 8 8 8 8 9 9 9 9 9 9 9 9 9 9 9 9 9 9 8 8 15 15 17 17 17 16 11 9 9 9 9 10 10 11 11 10 9 10 9 9 13 11 11 10 9 11 13 14 16 18 20 18 17 15 13 10 10 11 12 12
10 9 8 8 8 9 9 9 9 9 9 9 9 9 9 10 9 9 9 9 9 8 9 12 15 16 15 16 14 10 10 10 11 11 11 11 10 11 11 10 9 10 11 11 12 12 9 11 10 12 14 16 18 16 17 18 17 17 15 13 12 11 11
9 9 8 8 9 9 9 9 9 8 8 8 8 8 8 9 8 9 9 8 8 8 8 16 15 15 15 15 15 7 10 9 9 11 12 12 12 11 11 10 10 10 10 11 11 13 10 9 10 10 11 12 12 10 11 12 13 13 12 12 12 12 12
10 9 9 8 9 9 8 8 9 8 8 8 8 8 8 8 9 9 8 8 8 8 9 17 17 17 18 17 17 4 8 9 9 10 11 13 13 12 11 11 10 10 10 12 17 20 15 8 9 10 11 11 12 9 7 6 9 9 8 8 9 9 9
10 9 9 9 9 9 8 8 8 8 9 8 8 8 8 8 8 8 9 8 8 8 9 15 18 17 18 18 11 6 7 8 8 9 10 10 11 13 13 13 11 10 11 12 17 20 21 14 9 10 11 11 10 11 11 6 8 9 10 11 12 15 16
11 10 9 9 9 8 8 7 8 8 8 8 8 9 8 9 9 9 9 9 8 8 8 13 18 18 18 19 15 4 6 6 7 8 9 10 9 10 14 19 16 12 12 12 17 20 23 14 10 10 11 11 12 12 11 10 9 8 9 10 12 13 16
10 10 10 9 8 9 8 9 8 8 8 7 8 8 7 8 8 8 8 9 10 10 9 12 17 17 18 18 14 4 7 7 7 8 7 9 9 9 10 12 16 14 11 14 19 19 21 16 9 10 10 10 12 13 11 11 9 10 11 13 13 14 15
10 10 10 10 9 9 9 9 8 8 7 7 8 8 8 8 9 9 8 9 9 10 9 11 14 18 18 19 20 9 7 6 7 8 8 8 8 9 10 10 11 15 15 16 16 17 17 18 11 11 10 10 9 9 9 9 6 7 12 11 12 13 14
8 9 9 9 9 9 8 8 8 8 8 8 8 8 9 9 9 9 9 9 10 10 9 9 12 17 16 18 19 15 6 8 8 8 8 8 8 8 8 9 9 12 14 15 16 16 15 15 13 9 9 7 6 8 6 9 9 12 12 11 12 12 12
7 7 10 9 10 9 9 9 8 9 8 8 9 9 9 8 8 9 9 9 9 9 11 13 10 14 16 16 17 18 10 9 9 7 8 8 8 8 9 8 8 9 12 13 15 16 17 14 13 10 10 10 12 13 10 9 9 9 11 11 11 11 12
9 8 9 9 10 10 9 9 9 9 9 8 9 9 9 8 8 8 8 8 8 9 9 10 12 11 14 16 16 16 17 13 14 8 8 8 8 7 7 8 8 11 11 10 11 14 14 16 13 11 14 13 11 7 8 10 10 10 10 11 12 12 12
11 10 10 9 9 9 9 9 8 8 7 7 8 8 7 7 8 7 7 7 7 8 8 9 9 11 12 14 14 15 15 15 14 9 9 8 8 8 7 7 6 10 10 9 7 7 12 12 11 16 15 15 9 9 9 10 10 10 10 11 12 12 13
Wind_Direction
157 135 143 135 122 120 122 139 142 125 120 115 269 287 304 283 285 290 290 286 282 273 269 270 277 280 287 286 287 290 291 292 289 284 290 290 289 287 257 242 253 264 267 273 267 270 279 285 273 230 213 223 225 234 242 231 227 222 239 255 223 202 192
133 145 140 142 142 125 129 141 147 139 107 290 293 274 282 293 289 284 292 285 282 287 288 282 279 283 284 287 288 286 283 285 291 293 288 288 290 287 294 284 279 271 268 261 265 242 252 270 273 272 259 217 229 224 237 245 225 216 216 223 230 230 182
140 143 135 128 136 133 139 129 136 80 325 186 243 294 298 290 298 301 294 293 295 295 298 296 296 294 291 289 287 285 285 286 281 277 278 283 284 286 285 292 292 284 271 267 252 249 253 260 272 276 274 272 258 234 239 223 227 241 238 236 240 198 207
133 130 139 138 138 131 127 119 59 40 12 348 320 305 308 314 330 312 312 302 302 301 294 294 288 290 290 289 289 288 285 281 279 285 284 278 280 282 284 285 281 280 284 288 292 288 277 275 276 275 275 269 249 257 222 215 205 231 225 227 229 232 198
138 138 132 130 123 113 121 90 30 344 292 281 255 289 326 350 331 319 309 298 295 297 296 299 300 297 300 301 297 291 289 287 284 283 282 284 284 282 281 283 286 286 282 278 282 275 272 269 254 263 274 282 334 269 250 184 195 220 232 236 222 224 213
124 120 122 106 100 95 64 44 332 283 316 302 341 330 347 328 320 306 308 310 314 311 306 302 299 298 294 292 291 291 289 288 286 283 285 287 288 287 290 292 290 287 286 295 310 290 275 261 262 286 273 282 278 280 280 252 221 236 239 236 229 221 219
106 106 101 96 90 57 37 10 4 1 323 307 338 347 338 325 319 316 308 308 305 301 300 299 297 296 298 295 292 288 287 287 286 287 286 284 286 284 286 290 290 287 284 283 281 287 281 270 268 260 274 276 259 262 260 258 213 188 256 247 228 229 225
115 120 104 88 88 83 63 18 346 359 320 13 349 351 329 318 316 310 307 300 302 306 306 304 305 302 298 295 290 291 287 282 285 285 286 288 289 288 290 293 292 284 283 280 272 266 279 281 267 257 266 275 273 261 262 255 255 241 206 218 232 220 227
123 122 116 103 95 74 55 8 54 51 30 344 341 344 333 321 323 325 316 323 324 321 319 317 313 306 308 303 296 292 291 291 287 291 290 291 291 296 297 295 289 286 281 285 287 291 288 290 297 304 289 278 284 282 271 262 257 262 244 223 212 212 213
112 116 114 107 100 101 101 80 67 83 73 23 343 5 332 320 327 331 321 326 329 329 326 323 321 319 319 312 304 303 300 299 299 297 298 296 305 304 296 290 290 293 290 289 301 307 286 261 268 281 276 272 271 276 283 280 266 265 255 256 229 216 223
115 116 118 128 118 115 114 106 103 88 58 31 9 356 328 325 337 331 327 327 324 324 328 328 324 318 314 307 306 303 300 305 304 301 302 310 307 304 297 292 298 300 312 303 293 288 284 285 275 271 288 285 268 263 270 276 279 278 286 316 310 263 205
122 112 110 96 101 112 105 95 85 72 68 41 13 354 330 336 332 326 323 328 329 331 334 330 326 322 319 311 316 315 318 321 314 313 316 317 318 310 308 311 311 303 296 312 308 297 296 295 268 254 263 269 274 255 256 264 281 259 251 284 283 264 208
101 107 105 118 125 111 102 108 105 95 72 36 32 0 343 347 341 344 342 339 338 342 342 337 336 331 329 328 327 324 321 320 319 320 321 326 330 326 320 320 331 334 348 335 320 302 302 297 291 283 265 264 264 261 263 267 266 279 263 251 254 274 262
108 101 108 117 125 108 113 104 88 81 75 60 19 18 11 7 3 357 4 358 352 351 346 347 344 340 338 334 325 323 326 325 322 329 334 337 342 346 344 342 349 6 355 1 322 316 320 309 301 282 272 273 277 273 262 257 261 270 277 273 289 281 280
114 109 115 117 109 110 97 79 79 72 73 70 44 33 31 27 23 17 17 8 5 2 356 356 351 346 338 334 335 337 335 333 337 345 350 349 354 357 355 353 3 359 354 347 350 346 341 331 318 303 284 262 260 254 239 246 252 255 265 286 284 269 265
126 118 125 124 115 113 103 91 83 88 79 74 61 48 45 41 36 31 19 19 13 5 1 353 355 351 345 346 346 346 344 345 348 353 353 354 360 0 2 4 3 354 348 343 345 346 346 343 335 321 309 299 290 282 267 251 252 254 268 272 267 276 266
130 129 120 108 98 92 94 87 85 82 77 71 71 59 54 44 43 31 23 18 13 8 6 360 358 356 350 351 354 354 352 353 354 2 4 7 10 11 15 13 6 0 356 353 351 348 347 339 332 328 329 326 315 301 280 269 255 261 272 281 279 287 287
131 121 119 109 106 102 91 88 79 77 82 78 68 65 58 48 36 34 26 23 17 14 12 6 5 358 1 356 358 359 359 355 3 10 12 13 18 23 30 24 15 12 9 5 0 351 345 339 330 330 343 336 334 323 302 282 266 265 277 278 285 285 279
126 121 112 106 99 91 91 90 89 80 79 79 72 63 57 47 40 43 40 35 29 25 21 13 9 3 359 359 1 5 6 6 8 14 18 18 20 33 41 31 27 23 18 12 1 355 349 346 345 356 353 336 330 332 329 318 312 276 246 265 287 293 272
126 117 110 103 96 95 94 92 87 83 78 74 71 65 58 60 54 47 43 38 34 28 23 16 11 5 2 3 12 11 18 14 15 18 22 24 23 33 41 39 36 36 34 22 14 5 356 355 356 357 354 342 332 327 334 335 325 320 314 302 284 272 286
120 112 107 105 101 99 98 92 86 82 79 73 69 69 68 63 62 52 48 45 40 33 27 26 17 2 353 355 8 21 22 20 19 22 23 27 32 33 36 44 45 45 53 48 40 28 23 8 3 5 358 348 342 336 338 338 344 338 321 318 312 304 277
113 111 113 110 108 105 101 96 94 89 84 82 77 72 65 62 62 59 54 52 47 40 37 25 12 354 345 341 11 27 28 25 28 25 25 29 31 35 38 44 44 52 58 77 60 59 50 38 28 18 7 1 357 352 352 343 357 357 358 338 324 316 319
114 114 114 113 112 110 104 100 99 93 89 84 81 73 68 64 61 59 56 53 52 46 38 20 351 346 348 349 349 35 32 32 29 28 28 29 31 32 34 34 40 59 94 69 72 67 62 57 51 45 30 22 13 8 3 4 10 2 353 16 9 352 340
116 116 117 115 115 111 107 105 100 97 96 89 80 73 70 67 64 59 58 56 53 52 41 9 352 353 345 345 339 22 41 39 34 34 34 33 32 33 34 36 36 29 31 74 93 72 65 68 59 48 43 38 34 28 16 13 16 14 5 23 14 17 20
120 119 117 114 113 111 110 107 105 99 92 84 78 76 71 68 66 63 61 60 56 55 47 12 354 348 345 341 343 357 50 41 37 39 36 35 36 32 33 38 35 32 29 15 8 85 83 68 56 45 45 44 36 33 35 33 22 22 21 21 20 21 10
114 116 116 115 116 114 111 110 103 94 89 84 83 79 74 69 66 65 64 63 60 53 37 13 351 353 344 342 340 339 59 42 41 44 33 29 29 30 30 35 37 36 28 16 14 2 31 45 57 52 45 45 44 40 33 32 33 33 32 33 24 19 14
118 117 121 123 121 118 115 110 109 104 100 96 88 81 74 71 70 67 63 65 64 51 30 6 357 353 346 339 336 329 66 51 51 46 38 32 25 18 22 30 31 36 35 22 9 355 351 46 34 39 41 44 45 45 45 41 40 37 38 43 39 33 17
119 119 124 126 123 120 115 115 110 105 102 96 91 86 79 75 70 66 63 63 64 50 31 8 1 354 354 348 340 328 62 55 55 53 46 41 32 24 17 22 32 31 28 16 6 347 337 15 46 43 43 43 42 43 43 44 39 40 43 43 43 41 33
123 125 125 124 119 113 113 111 108 106 103 97 91 87 83 76 70 65 61 61 58 50 34 11 1 0 358 356 331 55 61 61 52 52 54 47 40 30 20 15 20 29 21 13 356 347 349 339 49 47 44 41 38 50 67 80 72 63 54 47 47 42 34
128 126 122 120 119 120 121 116 108 108 104 100 94 85 80 73 68 64 57 49 49 48 36 11 3 2 0 358 346 73 68 64 58 55 52 54 53 45 34 21 22 23 18 14 354 357 356 343 49 43 50 47 41 38 45 75 98 78 63 53 49 46 39
128 124 122 120 118 117 114 109 112 111 105 103 97 93 87 79 75 70 63 52 36 47 40 18 10 4 4 2 343 24 64 62 68 65 56 53 55 57 47 34 24 24 22 12 2 7 5 357 45 37 44 52 45 46 40 37 42 51 71 59 49 51 47
126 124 121 120 118 118 116 114 112 109 102 96 93 90 85 84 81 72 60 54 31 43 45 28 13 7 8 7 1 20 61 61 46 52 66 62 54 48 53 45 30 19 15 10 13 9 9 360 48 36 43 47 47 49 44 34 38 38 35 38 35 36 38
127 127 123 121 121 118 118 115 113 108 106 104 98 90 84 80 78 69 66 58 47 35 41 41 21 13 16 13 6 7 65 64 66 66 54 59 60 56 50 49 35 18 12 19 17 13 8 5 24 45 36 38 29 25 48 51 20 33 61 53 50 44 44
117 122 123 121 119 115 111 111 107 104 103 100 97 95 95 94 85 80 73 67 59 50 31 38 37 24 23 23 18 7 65 51 66 65 68 60 59 57 55 48 45 12 8 19 22 19 13 10 6 29 17 16 353 295 314 46 30 21 51 47 54 51 46
109 112 124 123 120 115 113 113 111 108 108 106 105 104 102 94 90 87 82 70 68 65 50 33 38 35 28 30 29 26 32 27 10 75 65 72 65 67 59 50 41 359 353 12 23 21 16 11 18 23 357 340 333 342 39 51 51 51 50 51 52 55 53
122 126 122 117 118 118 113 107 103 107 110 107 106 107 103 105 101 95 89 80 77 70 64 54 33 43 37 35 33 35 29 26 2 52 67 69 64 64 61 51 26 352 344 351 9 23 22 13 22 9 0 353 346 4 54 53 52 54 58 54 52 52 53
126 123 123 121 118 118 118 119 120 117 122 119 120 114 113 117 115 111 104 98 90 84 75 71 57 52 52 45 47 43 37 31 22 48 55 64 59 55 57 45 9 339 345 342 352 28 31 22 17 11 6 2 8 31 49 57 54 53 57 61 60 58 54